カタログに戻る

STARLINK-35009

運用中通信SSO
NORAD 65449·PAYLOAD·🇺🇸 United States

打ち上げ Sep 3, 2025 から Vandenberg Space Force Base

Loading…

次のパス (今後24時間)

TLE

最新Source: CelesTrak SupGP

元期: Sep 14, 2026, 21:25 UTC

1 65449C 25194R   26257.89284722  .00061045  00000+0  18957-2 0  2577
2 65449  97.2845 107.5693 0001678  91.8645 320.7129 15.33395057    17

AllMySatでSTARLINK-35009をリアルタイム追跡

Download on the App Store